[[{"header":{"parameterUnit":"m.s-1","parameterCategory":1,"la1":30.2991,"la2":30.254,"lo1":-89.0895,"lo2":-89.0444,"dy":0.0017,"dx":0.0017,"nx":28,"ny":28,"refTime":"2026-02-13T03:00:00:Z","depth":0,"parameterNumber":2,"parameterNumberName":"U-component_of_WINDS"},"data":[0,0,0,0,0,0,0,0,0,0,0,0,0,0,0,0,0,0,0,0,0,0,0,0,0,0,0,0,0,0,0,0,0,0,0,0,0,0,0,0,0,0,0,0,0,0,0,0,0,0,0,0,0,0,0,0,0,0,-5.1772,-5.1773,0,-5.1846,-5.1846,-5.1847,-5.18,-5.1798,-5.1796,-5.1794,-5.1868,-5.1872,-5.1876,0,0,0,0,0,0,0,0,0,0,0,0,0,-5.1593,-5.1597,-5.1772,-5.1773,-5.1774,-5.1845,-5.1846,-5.1847,-5.1801,-5.1798,-5.1795,-5.1793,-5.1867,-5.1872,-5.1876,0,0,0,0,0,0,0,0,0,0,0,0,0,-5.1669,-5.1598,-5.1772,-5.1759,-5.1759,-5.1845,-5.1846,-5.1848,-5.1801,-5.1798,-5.1795,-5.1792,-5.1865,-5.1871,-5.1877,-5.1979,0,0,-5.1895,-5.1898,0,0,0,0,0,0,0,0,-5.1665,-5.1676,-5.176,-5.176,-5.176,-5.181,-5.181,-5.1892,-5.1802,-5.1785,-5.1794,-5.179,-5.1852,-5.1859,-5.1879,-5.1983,-5.1986,-5.1896,-5.19,-5.1902,-5.1904,0,0,0,0,0,0,0,-5.166,-5.1672,-5.1801,-5.1762,-5.1762,-5.175,-5.1758,-5.1826,-5.1836,-5.1786,-5.1783,-5.1793,-5.1851,-5.1874,-5.1881,-5.1987,-5.1896,-5.1901,-5.1905,-5.1907,-5.218,-5.2184,0,0,0,0,0,0,-5.1655,-5.1668,-5.1799,-5.1803,-5.1704,-5.1756,-5.1764,-5.1798,-5.1835,-5.1838,-5.1795,-5.179,-5.1865,-5.1874,-5.1883,-5.2006,-5.1902,-5.1908,-5.1911,-5.2177,-5.2181,-5.2185,0,0,0,0,0,0,-5.1652,-5.1667,-5.1796,-5.1735,-5.175,-5.1763,-5.1801,-5.1801,-5.1823,-5.1842,-5.1843,-5.1817,-5.1863,-5.1875,-5.1956,-5.2008,-5.191,-5.1916,-5.2172,-5.2178,-5.2183,-5.2252,0,0,0,0,0,0,-5.1647,-5.1666,-5.1705,-5.1736,-5.1754,-5.1867,-5.1804,-5.1805,-5.1834,-5.1828,-5.1862,-5.1865,-5.1861,-5.1948,-5.1962,-5.2014,-5.1921,-5.2168,-5.2175,-5.2181,-5.2245,-5.2259,-5.2271,0,0,0,0,0,-5.164,-5.1721,-5.1707,-5.1723,-5.1802,-5.187,-5.1881,-5.1875,-5.1838,-5.1877,-5.189,-5.1863,-5.2001,-5.1956,-5.1973,-5.2027,-5.2165,-5.2173,-5.2181,-5.2239,-5.2257,-5.2271,0,0,0,0,0,0,-5.1694,-5.1724,-5.1709,-5.1802,-5.1835,-5.1862,-5.1911,-5.1893,-5.1936,-5.1928,-5.192,-5.1928,-5.2014,-5.2029,-5.1979,-5.2129,-5.2077,-5.2089,-5.2116,-5.2132,-5.2145,-5.2139,-5.1926,0,0,0,0,0,-5.1717,-5.177,-5.1794,-5.1873,-5.189,-5.1899,-5.1928,-5.1921,-5.1954,-5.1967,-5.1985,-5.2018,-5.2068,-5.2101,-5.2149,-5.2248,-5.2255,-5.2294,-5.2307,-5.2318,-5.2327,-5.2382,-5.24,-5.2212,-5.2212,-5.2212,0,0,-5.1764,-5.1787,-5.1821,-5.1885,-5.1909,-5.1964,-5.191,-5.197,-5.2011,-5.1976,-5.2054,-5.2069,-5.2105,-5.2196,-5.2238,-5.2212,-5.2382,-5.2328,-5.2337,-5.2341,-5.2393,-5.241,-5.2426,-5.2218,-5.2217,-5.2216,0,0,-5.1878,-5.1901,-5.197,-5.1996,-5.2034,-5.2039,-5.2056,-5.2088,-5.2096,-5.2175,-5.2151,-5.22,-5.2287,-5.2314,-5.2339,-5.2467,-5.2445,-5.2483,-5.255,-5.2604,-5.2618,-5.2631,-5.2677,-5.2694,-5.2493,-5.2493,-5.2493,0,-5.1931,-5.2013,-5.2008,-5.2071,-5.21,-5.2073,-5.2143,-5.2169,-5.222,-5.2241,-5.2211,-5.2321,-5.2344,-5.2441,-5.2473,-5.2495,-5.2514,-5.2478,-5.2617,-5.263,-5.2642,-5.2685,-5.2703,-5.2497,-5.2497,-5.2497,-5.2496,0,-5.2077,-5.2135,-5.2187,-5.2238,-5.2273,-5.2339,-5.2345,-5.2382,-5.2373,-5.2382,-5.2464,-5.249,-5.2543,-5.2566,-5.2558,-5.2664,-5.2647,-5.2618,-5.2564,-5.2664,-5.2705,-5.2721,-5.2504,-5.2502,-5.2501,-5.25,0,0,-5.2223,-5.2273,-5.2292,-5.2316,-5.2357,-5.2401,-5.2468,-5.252,-5.2552,-5.2589,-5.2644,-5.2721,-5.2695,-5.2723,-5.2719,-5.2766,-5.2866,-5.2731,-5.2732,-5.2755,-5.2985,-5.3005,-5.3025,-5.2853,-5.2856,-5.2859,-5.2982,0,-5.2339,-5.2454,-5.2453,-5.256,-5.2613,-5.259,-5.2648,-5.268,-5.2691,-5.2739,-5.2751,-5.2805,-5.2767,-5.2784,-5.283,-5.2844,-5.2912,-5.2836,-5.2904,-5.2907,-5.2894,-5.3046,-5.3067,-5.3182,-5.2998,-5.3,-5.3002,0,-5.2488,-5.2532,-5.2644,-5.2679,-5.2702,-5.2754,-5.2803,-5.2849,-5.2885,-5.289,-5.2924,-5.2913,-5.2981,-5.2928,-5.3022,-5.297,-5.2999,-5.3011,-5.3015,-5.3019,-5.2959,-5.3054,-5.3218,-5.3235,-5.3027,-5.3025,-5.3023,0,-5.2583,-5.267,-5.2749,-5.277,-5.2813,-5.285,-5.287,-5.2903,-5.2936,-5.2979,-5.3,-5.3051,-5.3079,-5.3119,-5.3122,-5.3083,-5.3217,-5.3164,-5.3223,-5.3223,-5.325,-5.3248,-5.342,-5.3271,-5.3271,-5.3271,-5.327,0,-5.2711,-5.2781,-5.2792,-5.284,-5.2918,-5.2917,-5.2994,-5.3011,-5.3042,-5.3093,-5.3077,-5.3125,-5.3127,-5.3178,-5.3181,-5.3259,-5.3272,-5.3278,-5.3277,-5.3278,-5.3277,-5.3295,-5.3287,-5.3275,-5.3274,-5.3274,-5.3273,0,-5.2828,-5.2839,-5.2923,-5.2958,-5.2969,-5.3025,-5.3055,-5.3101,-5.3113,-5.3178,-5.3194,-5.3211,-5.3269,-5.3277,-5.3346,-5.3348,-5.3441,-5.3434,-5.3429,-5.3427,-5.3485,-5.348,-5.3674,-5.3699,-5.3535,-5.3537,-5.3538,0,-5.2908,-5.2962,-5.3004,-5.3037,-5.3059,-5.3114,-5.3147,-5.315,-5.3185,-5.3233,-5.3274,-5.3332,-5.3377,-5.3472,-5.3491,-5.3544,-5.3536,-5.3601,-5.3544,-5.3544,-5.3536,-5.3532,-5.3538,-5.3611,-5.3613,-5.3614,-5.3616,0,-5.305,-5.3053,-5.3102,-5.3154,-5.3195,-5.3236,-5.3274,-5.3303,-5.3311,-5.3352,-5.3412,-5.3448,-5.3519,-5.3576,-5.3629,-5.365,-5.3635,-5.3634,-5.365,-5.3651,-5.3645,-5.3648,-5.3458,-5.3629,-5.3627,-5.3626,-5.3626,-5.3625,-5.315,-5.3197,-5.3234,-5.329,-5.332,-5.3357,-5.3403,-5.342,-5.3471,-5.3529,-5.3528,-5.3595,-5.3632,-5.3702,-5.3727,-5.3779,-5.3758,-5.3782,-5.3787,-5.3793,-5.3798,-5.3639,-5.3789,-5.3789,-5.3788,-5.3788,-5.3788,0,-5.3289,-5.3313,-5.3365,-5.342,-5.3465,-5.3448,-5.349,-5.3529,-5.3587,-5.3624,-5.367,-5.3741,-5.3797,-5.3822,-5.3877,-5.3915,-5.3909,-5.3929,-5.3925,-5.3931,-5.3814,-5.3794,-5.3933,-5.3933,-5.3933,-5.3933,-5.3933,-5.3933,-5.3367,-5.3445,-5.3454,-5.3547,-5.3571,-5.3636,-5.3662,-5.3696,-5.3726,-5.3805,-5.3852,-5.3869,-5.3901,-5.3959,-5.4011,-5.4017,-5.4037,-5.4061,-5.4063,-5.3953,-5.3939,-5.3925,-5.3906,-5.4065,-5.4066,-5.4175,-5.4176,-5.4177]},{"header":{"parameterUnit":"m.s-1","parameterCategory":1,"la1":30.2991,"la2":30.254,"lo1":-89.0895,"lo2":-89.0444,"dy":0.0017,"dx":0.0017,"nx":28,"ny":28,"refTime":"2026-02-13T03:00:00:Z","depth":0,"parameterNumber":3,"parameterNumberName":"V-component_of_WINDS"},"data":[0,0,0,0,0,0,0,0,0,0,0,0,0,0,0,0,0,0,0,0,0,0,0,0,0,0,0,0,0,0,0,0,0,0,0,0,0,0,0,0,0,0,0,0,0,0,0,0,0,0,0,0,0,0,0,0,0,0,1.7083,1.7084,0,1.7162,1.7163,1.7164,1.7218,1.7218,1.7219,1.7219,1.7297,1.7299,1.7301,0,0,0,0,0,0,0,0,0,0,0,0,0,1.6978,1.698,1.7083,1.7084,1.7085,1.7162,1.7163,1.7164,1.7218,1.7218,1.7219,1.7219,1.7297,1.7299,1.7301,0,0,0,0,0,0,0,0,0,0,0,0,0,1.7037,1.698,1.7083,1.7121,1.7125,1.7162,1.7163,1.7164,1.7218,1.7218,1.7219,1.7219,1.7296,1.7299,1.7301,1.7305,0,0,1.7309,1.731,0,0,0,0,0,0,0,0,1.7034,1.7041,1.7114,1.7118,1.7123,1.7181,1.7155,1.7211,1.7218,1.7182,1.7219,1.722,1.7258,1.7264,1.7277,1.7309,1.7312,1.7309,1.7311,1.7312,1.7313,0,0,0,0,0,0,0,1.7029,1.7038,1.7114,1.7115,1.7121,1.7134,1.7143,1.7166,1.7216,1.7186,1.719,1.7198,1.726,1.7274,1.7279,1.7313,1.7309,1.7311,1.7313,1.7314,1.7356,1.7356,0,0,0,0,0,0,1.702,1.7034,1.7111,1.7116,1.7079,1.7136,1.7146,1.7162,1.7216,1.7225,1.7198,1.7201,1.727,1.7276,1.7282,1.7293,1.7312,1.7314,1.7316,1.7357,1.7356,1.7356,0,0,0,0,0,0,1.7017,1.7026,1.7108,1.7076,1.7088,1.7137,1.7154,1.7163,1.7177,1.7225,1.7234,1.7203,1.7271,1.7279,1.73,1.7296,1.7315,1.7318,1.7357,1.7356,1.7356,1.7313,0,0,0,0,0,0,1.7014,1.7025,1.7026,1.7076,1.7089,1.7124,1.7154,1.7164,1.7182,1.7186,1.7232,1.724,1.7272,1.7296,1.7303,1.73,1.732,1.7358,1.7357,1.7356,1.7315,1.7311,1.7307,0,0,0,0,0,1.701,1.7009,1.7026,1.7035,1.7092,1.7124,1.7132,1.7168,1.7181,1.7184,1.7215,1.7239,1.7296,1.7298,1.7306,1.7304,1.7358,1.7357,1.7356,1.7316,1.7311,1.7307,0,0,0,0,0,0,1.6956,1.7016,1.7036,1.7051,1.7082,1.7133,1.7137,1.7161,1.7189,1.7191,1.7235,1.7245,1.7263,1.7285,1.7286,1.7313,1.733,1.7331,1.7297,1.7293,1.7289,1.7283,1.7322,0,0,0,0,0,1.6946,1.6967,1.7019,1.7028,1.7043,1.7087,1.7102,1.7128,1.7162,1.7175,1.7208,1.7239,1.7264,1.728,1.7305,1.7318,1.7331,1.7322,1.7318,1.7315,1.7315,1.7326,1.7324,1.7352,1.7352,1.7352,0,0,1.6925,1.6961,1.6971,1.7018,1.7045,1.7066,1.7098,1.7118,1.7134,1.7177,1.7201,1.7226,1.7264,1.7282,1.7292,1.7302,1.731,1.7313,1.731,1.7312,1.7325,1.7322,1.732,1.7352,1.7352,1.7352,0,0,1.6899,1.6927,1.694,1.6967,1.7009,1.7039,1.7042,1.7091,1.711,1.7134,1.7168,1.7188,1.723,1.7257,1.7276,1.7264,1.7288,1.7271,1.7252,1.7263,1.7261,1.7259,1.7257,1.7255,1.7271,1.7271,1.7271,0,1.6868,1.6902,1.6942,1.6962,1.6983,1.7025,1.7039,1.7063,1.711,1.7124,1.7135,1.7191,1.7219,1.7246,1.7243,1.7257,1.7263,1.7266,1.7258,1.7257,1.7256,1.7254,1.7253,1.7269,1.7269,1.7269,1.727,0,1.6863,1.6886,1.6891,1.6938,1.6959,1.6975,1.7019,1.7036,1.7061,1.709,1.7116,1.7152,1.7188,1.7196,1.7219,1.7227,1.7232,1.725,1.7268,1.725,1.725,1.7249,1.7266,1.7267,1.7267,1.7268,0,0,1.6802,1.6875,1.6876,1.69,1.6951,1.6969,1.6989,1.7025,1.7039,1.7071,1.709,1.7126,1.7144,1.7166,1.7193,1.7203,1.7195,1.722,1.7221,1.7215,1.7208,1.7195,1.7194,1.7211,1.7211,1.7211,1.7206,0,1.6785,1.6823,1.6862,1.6886,1.6909,1.6952,1.6969,1.7003,1.7031,1.7056,1.7087,1.7114,1.7134,1.7148,1.7159,1.7193,1.7194,1.7194,1.7229,1.723,1.7219,1.7193,1.7179,1.7172,1.7205,1.7205,1.7205,0,1.6769,1.6802,1.6829,1.6881,1.6893,1.6907,1.6946,1.6968,1.7008,1.7028,1.7055,1.7085,1.7108,1.7125,1.7159,1.7158,1.7175,1.7194,1.7195,1.72,1.7217,1.7199,1.717,1.7169,1.7205,1.7205,1.7205,0,1.6725,1.6776,1.68,1.6818,1.6879,1.6889,1.6915,1.6955,1.6976,1.7009,1.7024,1.7058,1.7078,1.7105,1.7144,1.7152,1.7175,1.7194,1.7194,1.7193,1.7196,1.7196,1.7171,1.7206,1.7206,1.7206,1.7206,0,1.6702,1.6717,1.6781,1.6796,1.6815,1.6861,1.6878,1.6908,1.6944,1.6966,1.7004,1.7024,1.7074,1.71,1.7131,1.7156,1.7164,1.7182,1.719,1.7179,1.7177,1.7191,1.7193,1.7205,1.7205,1.7205,1.7205,0,1.6656,1.6699,1.6728,1.6785,1.68,1.6811,1.686,1.6877,1.6909,1.6936,1.6945,1.6996,1.7028,1.7071,1.7116,1.7137,1.7159,1.7171,1.7146,1.7151,1.7149,1.7149,1.7133,1.7135,1.7167,1.7166,1.7166,0,1.6639,1.6652,1.6711,1.673,1.6755,1.6783,1.6805,1.6851,1.6873,1.6921,1.6932,1.6969,1.7,1.7051,1.7091,1.7127,1.7141,1.7133,1.7146,1.7136,1.7143,1.7142,1.7145,1.7129,1.7129,1.7128,1.7128,0,1.6605,1.6627,1.6657,1.6697,1.6723,1.6755,1.679,1.6802,1.6856,1.6878,1.6914,1.6938,1.6987,1.7022,1.7064,1.7091,1.7119,1.7124,1.7126,1.7115,1.7101,1.7111,1.7138,1.7124,1.7124,1.7124,1.7125,1.7125,1.6574,1.6589,1.6634,1.6668,1.67,1.6732,1.6751,1.6787,1.6818,1.6862,1.6887,1.6922,1.6965,1.7024,1.705,1.7078,1.7089,1.7091,1.7092,1.7092,1.709,1.7096,1.7086,1.7086,1.7086,1.7086,1.7086,0,1.6544,1.6576,1.6607,1.6655,1.6683,1.6708,1.6749,1.677,1.68,1.6838,1.6869,1.6911,1.6947,1.6992,1.7032,1.7046,1.706,1.7055,1.7054,1.7061,1.7077,1.7072,1.7043,1.7043,1.7043,1.7043,1.7043,1.7043,1.6531,1.6559,1.6587,1.6631,1.6663,1.6699,1.672,1.6751,1.6782,1.6827,1.6858,1.6888,1.6929,1.6972,1.7007,1.702,1.7033,1.7024,1.704,1.7055,1.7059,1.7063,1.7058,1.7026,1.7026,1.7022,1.7022,1.7022]}]]